Time,TemperatureF,DewpointF,PressureIn,WindDirection,WindDirectionDegrees,WindSpeedMPH,WindSpeedGustMPH,Humidity,HourlyPrecipIn,Conditions,Clouds,dailyrainin,SoftwareType,DateUTC
2013-10-02 00:02:00,66.8,65.0,29.97,SSW,195,0.0,-999.0,94,-99.99,,,0.00,weatherlink.com 1.10,2013-10-02 04:02:00,
2013-10-02 00:17:00,66.2,65.0,29.97,SSW,195,2.0,-999.0,94,-99.99,,,0.00,weatherlink.com 1.10,2013-10-02 04:17:00,
2013-10-02 00:32:00,65.3,64.0,29.97,SSW,195,1.0,-999.0,95,-99.99,,,0.00,weatherlink.com 1.10,2013-10-02 04:32:00,
2013-10-02 00:47:00,65.5,64.0,29.97,SSW,195,0.0,-999.0,96,-99.99,,,0.00,weatherlink.com 1.10,2013-10-02 04:47:00,
2013-10-02 01:02:00,65.4,64.0,29.97,SSW,195,0.0,-999.0,96,-99.99,,,0.00,weatherlink.com 1.10,2013-10-02 05:02:00,
2013-10-02 01:17:00,64.9,64.0,29.98,SSW,195,0.0,-999.0,96,-99.99,,,0.00,weatherlink.com 1.10,2013-10-02 05:17:00,
2013-10-02 01:32:00,64.6,64.0,29.98,SSW,195,0.0,-999.0,97,-99.99,,,0.00,weatherlink.com 1.10,2013-10-02 05:32:00,
2013-10-02 01:47:00,63.8,63.0,29.98,SSW,195,0.0,-999.0,97,-99.99,,,0.00,weatherlink.com 1.10,2013-10-02 05:47:00,
2013-10-02 02:02:00,63.3,63.0,29.98,SSW,195,0.0,-999.0,97,-99.99,,,0.00,weatherlink.com 1.10,2013-10-02 06:02:00,
2013-10-02 02:17:00,63.2,62.0,29.98,SSW,195,0.0,-999.0,97,-99.99,,,0.00,weatherlink.com 1.10,2013-10-02 06:17:00,
2013-10-02 02:32:00,63.4,63.0,29.99,SSW,195,0.0,-999.0,98,-99.99,,,0.00,weatherlink.com 1.10,2013-10-02 06:32:00,
2013-10-02 02:47:00,63.2,63.0,29.99,SSW,195,0.0,-999.0,98,-99.99,,,0.00,weatherlink.com 1.10,2013-10-02 06:47:00,
2013-10-02 03:02:00,63.6,63.0,29.99,SSW,195,0.0,-999.0,98,-99.99,,,0.00,weatherlink.com 1.10,2013-10-02 07:02:00,
2013-10-02 03:17:00,63.7,63.0,29.99,SSW,195,0.0,-999.0,98,-99.99,,,0.00,weatherlink.com 1.10,2013-10-02 07:17:00,
2013-10-02 03:32:00,63.5,63.0,29.99,SSW,195,0.0,-999.0,98,-99.99,,,0.00,weatherlink.com 1.10,2013-10-02 07:32:00,
2013-10-02 03:47:00,63.9,64.0,29.99,SSW,195,0.0,-999.0,99,-99.99,,,0.00,weatherlink.com 1.10,2013-10-02 07:47:00,
2013-10-02 04:03:00,64.2,64.0,29.99,SSW,195,0.0,-999.0,99,-99.99,,,0.00,weatherlink.com 1.10,2013-10-02 08:03:00,
2013-10-02 04:17:00,64.1,64.0,29.99,SSW,195,2.0,-999.0,99,-99.99,,,0.00,weatherlink.com 1.10,2013-10-02 08:17:00,
2013-10-02 04:32:00,64.5,64.0,29.99,SSW,195,3.0,-999.0,99,-99.99,,,0.01,weatherlink.com 1.10,2013-10-02 08:32:00,
2013-10-02 04:47:00,64.4,64.0,29.99,SSW,195,0.0,-999.0,99,-99.99,,,0.01,weatherlink.com 1.10,2013-10-02 08:47:00,
2013-10-02 05:02:00,64.4,64.0,29.99,SSW,195,1.0,-999.0,99,-99.99,,,0.01,weatherlink.com 1.10,2013-10-02 09:02:00,
2013-10-02 05:17:00,64.2,64.0,29.99,SSW,195,0.0,-999.0,99,-99.99,,,0.01,weatherlink.com 1.10,2013-10-02 09:17:00,
2013-10-02 05:32:00,64.0,64.0,30.00,SSW,195,0.0,-999.0,99,-99.99,,,0.01,weatherlink.com 1.10,2013-10-02 09:32:00,
2013-10-02 05:47:00,65.4,65.0,30.00,SSW,195,3.0,-999.0,99,-99.99,,,0.01,weatherlink.com 1.10,2013-10-02 09:47:00,
2013-10-02 06:02:00,66.2,66.0,30.00,SSW,195,4.0,-999.0,100,-99.99,,,0.01,weatherlink.com 1.10,2013-10-02 10:02:00,
2013-10-02 06:17:00,66.4,66.0,30.00,SW,232,6.0,-999.0,100,-99.99,,,0.01,weatherlink.com 1.10,2013-10-02 10:17:00,
2013-10-02 06:32:00,66.5,66.0,30.00,SW,219,2.0,-999.0,99,-99.99,,,0.01,weatherlink.com 1.10,2013-10-02 10:32:00,
2013-10-02 06:47:00,66.5,66.0,30.00,SSW,211,4.0,-999.0,99,-99.99,,,0.01,weatherlink.com 1.10,2013-10-02 10:47:00,
2013-10-02 07:02:00,66.6,67.0,30.01,SW,225,5.0,-999.0,100,-99.99,,,0.01,weatherlink.com 1.10,2013-10-02 11:02:00,
2013-10-02 07:17:00,66.7,67.0,30.01,SW,223,4.0,-999.0,100,-99.99,,,0.01,weatherlink.com 1.10,2013-10-02 11:17:00,
2013-10-02 07:32:00,66.8,67.0,30.01,SW,223,6.0,-999.0,100,-99.99,,,0.01,weatherlink.com 1.10,2013-10-02 11:32:00,
2013-10-02 07:47:00,66.8,67.0,30.02,SW,223,4.0,-999.0,100,-99.99,,,0.01,weatherlink.com 1.10,2013-10-02 11:47:00,
2013-10-02 08:02:00,66.8,67.0,30.02,SW,223,1.0,-999.0,100,-99.99,,,0.01,weatherlink.com 1.10,2013-10-02 12:02:00,
2013-10-02 08:17:00,66.9,67.0,30.03,SSW,209,4.0,-999.0,100,-99.99,,,0.01,weatherlink.com 1.10,2013-10-02 12:17:00,
2013-10-02 08:32:00,67.0,67.0,30.03,SW,217,4.0,-999.0,100,-99.99,,,0.01,weatherlink.com 1.10,2013-10-02 12:32:00,
2013-10-02 08:47:00,67.2,67.0,30.04,SW,217,1.0,-999.0,100,-99.99,,,0.01,weatherlink.com 1.10,2013-10-02 12:47:00,
2013-10-02 09:02:00,67.3,67.0,30.04,SW,217,2.0,-999.0,100,-99.99,,,0.01,weatherlink.com 1.10,2013-10-02 13:02:00,
2013-10-02 09:17:00,67.4,67.0,30.04,SW,216,1.0,-999.0,100,-99.99,,,0.01,weatherlink.com 1.10,2013-10-02 13:17:00,
2013-10-02 09:33:00,67.3,67.0,30.04,SW,217,3.0,-999.0,100,-99.99,,,0.01,weatherlink.com 1.10,2013-10-02 13:33:00,
2013-10-02 09:48:00,67.3,67.0,30.05,SW,217,2.0,-999.0,100,-99.99,,,0.01,weatherlink.com 1.10,2013-10-02 13:48:00,
2013-10-02 10:03:00,67.3,67.0,30.05,SW,217,2.0,-999.0,100,-99.99,,,0.01,weatherlink.com 1.10,2013-10-02 14:03:00,
2013-10-02 10:18:00,67.5,68.0,30.05,SW,217,1.0,-999.0,100,-99.99,,,0.01,weatherlink.com 1.10,2013-10-02 14:18:00,
2013-10-02 10:33:00,67.5,68.0,30.05,SW,217,0.0,-999.0,100,-99.99,,,0.01,weatherlink.com 1.10,2013-10-02 14:33:00,
2013-10-02 10:48:00,67.6,68.0,30.05,SW,217,1.0,-999.0,100,-99.99,,,0.01,weatherlink.com 1.10,2013-10-02 14:48:00,
2013-10-02 11:03:00,67.7,68.0,30.05,SW,217,2.0,-999.0,100,-99.99,,,0.01,weatherlink.com 1.10,2013-10-02 15:03:00,
2013-10-02 11:18:00,67.9,68.0,30.05,SW,216,1.0,-999.0,100,-99.99,,,0.01,weatherlink.com 1.10,2013-10-02 15:18:00,
2013-10-02 11:33:00,68.1,68.0,30.05,SW,217,1.0,-999.0,100,-99.99,,,0.01,weatherlink.com 1.10,2013-10-02 15:33:00,
2013-10-02 11:48:00,68.3,68.0,30.05,SW,217,2.0,-999.0,100,-99.99,,,0.01,weatherlink.com 1.10,2013-10-02 15:48:00,
2013-10-02 12:03:00,68.4,68.0,30.04,SW,216,0.0,-999.0,100,-99.99,,,0.01,weatherlink.com 1.10,2013-10-02 16:03:00,
2013-10-02 12:18:00,68.7,69.0,30.04,SW,217,0.0,-999.0,100,-99.99,,,0.01,weatherlink.com 1.10,2013-10-02 16:18:00,
2013-10-02 12:33:00,69.1,69.0,30.04,SW,217,1.0,-999.0,99,-99.99,,,0.01,weatherlink.com 1.10,2013-10-02 16:33:00,
2013-10-02 12:48:00,69.9,69.0,30.04,SW,217,0.0,-999.0,98,-99.99,,,0.01,weatherlink.com 1.10,2013-10-02 16:48:00,
2013-10-02 13:03:00,70.6,70.0,30.04,SW,217,0.0,-999.0,97,-99.99,,,0.01,weatherlink.com 1.10,2013-10-02 17:03:00,
2013-10-02 13:18:00,71.7,70.0,30.03,SW,217,0.0,-999.0,94,-99.99,,,0.01,weatherlink.com 1.10,2013-10-02 17:18:00,
2013-10-02 13:33:00,72.3,70.0,30.03,SW,217,0.0,-999.0,91,-99.99,,,0.01,weatherlink.com 1.10,2013-10-02 17:33:00,
2013-10-02 13:48:00,74.0,71.0,30.02,SW,217,2.0,-999.0,90,-99.99,,,0.01,weatherlink.com 1.10,2013-10-02 17:48:00,
2013-10-02 14:03:00,75.1,71.0,30.02,SSW,207,1.0,-999.0,87,-99.99,,,0.01,weatherlink.com 1.10,2013-10-02 18:03:00,
2013-10-02 14:18:00,74.9,70.0,30.02,SE,140,1.0,-999.0,85,-99.99,,,0.01,weatherlink.com 1.10,2013-10-02 18:18:00,
2013-10-02 14:33:00,74.0,70.0,30.02,South,184,4.0,-999.0,87,-99.99,,,0.01,weatherlink.com 1.10,2013-10-02 18:33:00,
2013-10-02 14:48:00,73.4,70.0,30.01,SSE,163,1.0,-999.0,88,-99.99,,,0.01,weatherlink.com 1.10,2013-10-02 18:48:00,
2013-10-02 15:04:00,73.3,70.0,30.01,South,180,5.0,-999.0,89,-99.99,,,0.01,weatherlink.com 1.10,2013-10-02 19:04:00,
2013-10-02 15:18:00,73.8,70.0,30.01,South,186,2.0,-999.0,88,-99.99,,,0.01,weatherlink.com 1.10,2013-10-02 19:18:00,
2013-10-02 15:33:00,73.9,70.0,30.00,SSW,198,0.0,-999.0,87,-99.99,,,0.01,weatherlink.com 1.10,2013-10-02 19:33:00,
2013-10-02 15:48:00,74.6,70.0,30.00,East,82,0.0,-999.0,85,-99.99,,,0.01,weatherlink.com 1.10,2013-10-02 19:48:00,
2013-10-02 16:03:00,74.9,70.0,29.99,East,82,1.0,-999.0,85,-99.99,,,0.01,weatherlink.com 1.10,2013-10-02 20:03:00,
2013-10-02 16:18:00,75.3,70.0,29.99,East,82,1.0,-999.0,82,-99.99,,,0.01,weatherlink.com 1.10,2013-10-02 20:18:00,
2013-10-02 16:33:00,76.2,70.0,29.98,East,82,2.0,-999.0,81,-99.99,,,0.01,weatherlink.com 1.10,2013-10-02 20:33:00,
2013-10-02 16:48:00,77.0,70.0,29.98,SW,223,3.0,-999.0,79,-99.99,,,0.01,weatherlink.com 1.10,2013-10-02 20:48:00,
2013-10-02 17:03:00,77.5,69.0,29.97,SSW,202,1.0,-999.0,75,-99.99,,,0.01,weatherlink.com 1.10,2013-10-02 21:03:00,
2013-10-02 17:18:00,77.8,69.0,29.97,South,191,5.0,-999.0,74,-99.99,,,0.01,weatherlink.com 1.10,2013-10-02 21:18:00,
2013-10-02 17:33:00,77.5,69.0,29.97,SSW,194,7.0,-999.0,75,-99.99,,,0.01,weatherlink.com 1.10,2013-10-02 21:33:00,
2013-10-02 17:48:00,77.2,69.0,29.97,SSW,203,2.0,-999.0,76,-99.99,,,0.01,weatherlink.com 1.10,2013-10-02 21:48:00,
2013-10-02 18:03:00,77.0,69.0,29.97,SSW,204,2.0,-999.0,75,-99.99,,,0.01,weatherlink.com 1.10,2013-10-02 22:03:00,
2013-10-02 18:18:00,76.7,69.0,29.98,SSW,204,3.0,-999.0,76,-99.99,,,0.01,weatherlink.com 1.10,2013-10-02 22:18:00,
2013-10-02 18:33:00,76.2,69.0,29.98,SSW,204,1.0,-999.0,77,-99.99,,,0.01,weatherlink.com 1.10,2013-10-02 22:33:00,
2013-10-02 18:48:00,75.4,69.0,29.98,SSW,204,1.0,-999.0,80,-99.99,,,0.01,weatherlink.com 1.10,2013-10-02 22:48:00,
2013-10-02 19:03:00,74.5,68.0,29.98,SSW,204,0.0,-999.0,81,-99.99,,,0.01,weatherlink.com 1.10,2013-10-02 23:03:00,
2013-10-02 19:18:00,73.4,68.0,29.98,SSW,204,0.0,-999.0,84,-99.99,,,0.01,weatherlink.com 1.10,2013-10-02 23:18:00,
2013-10-02 19:33:00,72.6,68.0,29.98,SSW,204,0.0,-999.0,85,-99.99,,,0.01,weatherlink.com 1.10,2013-10-02 23:33:00,
2013-10-02 19:48:00,72.1,68.0,29.98,SSW,204,0.0,-999.0,87,-99.99,,,0.01,weatherlink.com 1.10,2013-10-02 23:48:00,
2013-10-02 20:03:00,71.7,68.0,29.98,SSW,204,0.0,-999.0,87,-99.99,,,0.01,weatherlink.com 1.10,2013-10-03 00:03:00,
2013-10-02 20:18:00,70.9,67.0,29.98,SSW,204,2.0,-999.0,88,-99.99,,,0.01,weatherlink.com 1.10,2013-10-03 00:18:00,
2013-10-02 20:33:00,70.2,67.0,29.98,SSW,204,0.0,-999.0,90,-99.99,,,0.01,weatherlink.com 1.10,2013-10-03 00:33:00,
2013-10-02 20:48:00,70.2,67.0,29.98,SSW,204,0.0,-999.0,89,-99.99,,,0.01,weatherlink.com 1.10,2013-10-03 00:48:00,
2013-10-02 21:03:00,69.9,67.0,29.98,SSW,204,3.0,-999.0,90,-99.99,,,0.01,weatherlink.com 1.10,2013-10-03 01:03:00,
2013-10-02 21:18:00,70.0,68.0,29.98,SSW,204,1.0,-999.0,92,-99.99,,,0.01,weatherlink.com 1.10,2013-10-03 01:18:00,
2013-10-02 21:33:00,69.9,68.0,29.98,SSW,204,0.0,-999.0,92,-99.99,,,0.01,weatherlink.com 1.10,2013-10-03 01:33:00,
2013-10-02 21:48:00,69.5,68.0,29.98,SSW,204,0.0,-999.0,93,-99.99,,,0.01,weatherlink.com 1.10,2013-10-03 01:48:00,
2013-10-02 22:03:00,69.1,67.0,29.98,SSW,204,0.0,-999.0,93,-99.99,,,0.01,weatherlink.com 1.10,2013-10-03 02:03:00,
2013-10-02 22:18:00,68.9,67.0,29.98,SSW,204,0.0,-999.0,94,-99.99,,,0.01,weatherlink.com 1.10,2013-10-03 02:18:00,
2013-10-02 22:33:00,68.5,67.0,29.98,SSW,204,0.0,-999.0,94,-99.99,,,0.01,weatherlink.com 1.10,2013-10-03 02:33:00,
2013-10-02 22:48:00,68.3,67.0,29.98,SSW,204,0.0,-999.0,95,-99.99,,,0.01,weatherlink.com 1.10,2013-10-03 02:48:00,
2013-10-02 23:03:00,68.1,67.0,29.98,SSW,204,1.0,-999.0,95,-99.99,,,0.01,weatherlink.com 1.10,2013-10-03 03:03:00,
2013-10-02 23:18:00,67.9,67.0,29.98,SSW,204,0.0,-999.0,95,-99.99,,,0.01,weatherlink.com 1.10,2013-10-03 03:18:00,
2013-10-02 23:33:00,67.7,66.0,29.98,SSW,204,0.0,-999.0,95,-99.99,,,0.01,weatherlink.com 1.10,2013-10-03 03:33:00,
2013-10-02 23:48:00,67.4,66.0,29.98,SSW,204,0.0,-999.0,96,-99.99,,,0.01,weatherlink.com 1.10,2013-10-03 03:48:00,